Location: Adaghas
(31.2259°N, 9.0496°W)
Time: 03:38:06
(UTC+00:00)

ATLAS 2AS CENTAUR R/B - Pass Details

Date: 18 September 2020
Orbit: 939 x 1273 km, 63.7° (Epoch: 19 October)

Event Time Altitude Azimuth Distance (km) Brightness Sun altitude
Rises 20:55:13 0° 202° (SSW) 4,122 5.8 -29.5°
Reaches altitude 10° 20:57:55 10° 201° (SSW) 3,190 5.1 -30.1°
Enters shadow 21:04:48 69° 169° (S) 1,340 2.9 -31.4°
Exits shadow 21:11:56 18° 33° (NNE) 2,687 4.7 -32.8°
Drops below altitude 10° 21:13:40 10° 32° (NNE) 3,261 5.1 -33.2°
Sets 21:16:27 0° 31° (NNE) 4,217 5.8 -33.7°
